Dewpoint
55 54 52 51 50 49 48 47 48 49 48 49 49 49 47 47 46 46 48 44 46 46 45 45 45 45 40 33 30 38 40 39 40 49 44 42 45 44 38 35 43 43 42 39 41 41 39
56 55 53 51 50 50 49 48 48 49 49 47 48 49 47 46 46 45 45 49 46 46 45 45 45 45 35 27 34 34 36 37 38 44 44 45 45 43 36 31 39 43 44 43 42 43 41
57 56 54 52 51 50 49 48 47 49 50 49 48 49 47 47 47 45 44 46 48 46 46 45 44 40 35 31 32 35 38 38 37 42 42 46 48 47 38 29 33 40 41 44 41 44 38
59 57 56 54 52 50 49 48 48 49 49 48 47 49 48 46 46 46 43 44 47 47 47 46 44 38 32 34 36 36 36 37 39 43 42 49 48 45 44 31 33 36 39 38 40 42 40
60 59 57 54 53 51 49 49 48 48 49 48 48 47 47 46 46 46 42 44 48 47 46 46 42 36 28 40 35 34 36 35 37 43 47 48 45 42 38 32 31 34 30 37 39 39 39
62 60 58 55 53 51 49 49 48 47 48 48 47 46 46 46 46 46 43 45 45 46 43 39 36 34 34 27 33 38 38 40 38 41 43 43 38 37 35 32 27 26 25 27 34 38 38
61 61 60 56 54 52 49 48 48 48 47 47 47 45 46 46 45 44 44 42 39 37 36 31 28 29 29 34 38 38 38 38 40 40 34 37 32 34 31 29 22 22 21 18 27 35 36
61 62 59 56 54 51 49 48 47 47 47 47 46 46 46 44 44 44 45 38 32 38 32 33 33 33 34 38 36 36 41 36 38 34 37 35 31 35 32 27 24 21 22 24 25 38 36
62 62 59 56 54 51 48 48 46 46 46 46 46 46 44 44 45 42 41 35 40 39 33 34 37 36 36 40 37 36 40 38 37 34 34 32 35 37 34 29 25 22 23 27 29 32 36
61 62 58 55 53 50 48 47 46 45 45 46 45 43 44 46 42 41 38 38 42 40 32 32 36 37 38 39 37 44 43 39 36 35 33 33 38 35 37 26 25 22 24 23 26 31 25
61 61 58 55 52 50 48 46 46 45 44 44 42 44 46 46 40 38 40 41 42 39 23 33 37 41 38 35 38 39 41 40 33 34 31 33 34 34 36 27 25 25 26 28 31 29 22
60 60 57 54 51 49 47 46 45 44 45 43 43 46 47 41 42 42 42 42 40 29 22 32 36 34 31 34 36 39 39 38 37 35 35 36 38 39 36 31 29 31 31 30 29 23 21
60 60 56 53 50 48 47 46 45 44 44 44 46 44 44 42 39 43 42 40 31 25 31 29 34 36 34 30 31 34 32 32 31 28 29 35 35 39 38 31 31 27 26 21 19 22 19
61 59 56 52 50 48 46 45 45 44 44 45 46 45 45 44 44 44 42 34 26 27 28 32 35 36 33 35 34 31 31 30 34 30 31 30 28 32 33 29 29 25 21 19 14 15 15
60 58 55 52 49 47 46 45 45 45 45 46 45 44 43 44 44 44 39 30 29 30 33 29 31 33 32 35 33 33 32 30 29 34 31 31 29 37 35 33 30 29 27 25 22 19 16
60 57 54 51 49 47 46 45 45 45 45 46 43 42 41 45 45 43 38 30 33 32 34 34 28 34 31 33 33 34 32 35 33 35 35 35 30 35 35 34 33 31 28 22 26 18 10
59 56 53 51 49 47 45 45 45 45 44 45 42 38 44 45 45 40 33 33 33 34 34 29 32 33 33 33 33 31 33 36 36 35 34 32 32 33 33 32 30 29 28 27 25 23 18
58 55 53 51 49 47 45 45 45 45 44 44 41 34 44 45 38 37 34 34 36 32 33 31 34 33 32 32 30 30 33 36 37 35 31 31 33 30 33 35 36 30 26 25 21 23 21
58 54 52 50 49 46 45 45 45 44 45 41 37 35 44 44 32 32 34 34 34 32 30 29 31 31 28 30 30 31 33 36 38 34 33 31 32 27 29 30 33 32 30 29 26 29 26
55 53 52 50 48 46 45 45 45 44 43 41 37 32 37 40 37 33 31 31 31 35 31 30 29 29 28 28 30 30 33 37 37 35 34 32 29 28 23 25 27 28 28 29 28 27 23
54 52 51 49 47 45 44 44 44 42 43 40 34 30 34 31 31 30 34 31 30 30 32 31 28 29 27 26 28 30 33 34 36 36 35 33 30 28 26 29 31 30 27 27 28 29 26
53 52 51 48 47 44 44 44 43 41 43 34 26 28 32 31 31 31 32 31 31 32 33 30 29 30 28 28 30 28 32 32 31 34 34 32 29 29 26 26 27 27 27 28 27 28 28
52 51 50 47 46 44 44 44 42 43 38 28 31 31 28 27 28 28 27 31 33 34 35 35 34 31 32 33 33 33 32 30 32 33 32 32 29 28 26 24 23 20 22 24 26 27 27
52 51 48 47 45 44 44 43 41 42 38 31 31 29 23 23 27 28 26 31 34 33 33 35 33 32 33 34 34 32 30 30 30 29 31 31 30 28 25 23 17 19 21 23 22 24 25
51 49 48 47 45 44 43 41 41 41 38 33 33 27 22 21 25 24 25 26 34 34 34 34 33 32 35 34 29 27 27 27 28 29 28 28 27 26 24 20 18 25 26 25 25 28 31
50 49 47 46 45 44 42 41 41 39 38 34 34 34 25 23 23 23 23 26 28 33 33 33 32 33 38 33 28 21 21 23 25 28 29 28 27 24 22 19 14 24 26 28 28 25 29
50 48 47 46 44 44 42 40 40 39 38 36 34 36 28 25 27 24 22 22 23 25 30 30 30 34 38 30 26 22 21 24 23 23 26 26 25 24 24 21 20 26 28 28 22 26 27
49 48 47 46 44 43 43 42 42 39 38 36 35 35 30 26 29 28 27 24 23 23 24 25 30 32 35 31 28 26 24 23 23 24 24 23 22 21 22 22 19 28 30 26 28 25 24
49 48 47 45 44 43 42 41 40 40 38 35 33 34 33 28 29 30 29 30 31 30 25 30 31 31 33 34 31 29 26 27 25 22 26 24 26 24 24 25 28 25 28 28 26 26 26
Wind_Speed
12 12 12 11 13 12 12 10 13 14 16 17 17 14 14 13 13 16 14 12 11 10 8 8 9 9 9 7 10 6 6 7 10 9 12 13 14 20 30 30 25 25 18 24 23 20 18
16 15 14 13 12 12 13 13 13 14 14 17 18 15 15 13 14 13 16 14 12 11 9 8 8 9 8 12 5 4 8 8 9 10 9 15 10 20 20 27 28 23 14 20 24 16 15
19 17 15 14 14 13 14 13 14 15 14 15 18 18 14 15 14 12 14 17 14 11 9 8 7 7 10 14 5 6 9 8 8 10 13 16 12 12 12 24 27 14 22 21 18 12 21
22 20 17 15 15 13 15 14 15 14 13 15 17 17 15 15 16 14 13 15 17 11 10 8 6 8 10 1 8 11 8 6 9 5 7 4 7 13 12 16 24 29 28 8 20 25 10
25 23 19 16 16 14 15 15 16 13 13 15 16 16 16 16 15 13 13 15 17 12 8 7 8 6 10 2 6 10 8 6 10 6 5 2 6 9 23 23 24 25 23 21 9 15 11
24 26 22 17 14 15 13 14 15 14 14 14 15 16 16 15 12 13 14 15 11 6 6 5 6 7 6 7 10 7 9 5 10 11 10 4 2 11 26 28 30 31 27 24 16 18 17
26 26 21 17 14 16 13 13 15 14 14 14 14 16 15 13 13 12 13 6 4 5 8 6 6 10 4 8 5 4 4 5 8 13 6 5 2 15 30 31 20 22 24 20 24 15 23
26 31 20 18 16 16 12 12 14 13 14 14 15 15 14 13 14 11 8 5 3 4 3 5 8 7 8 1 4 2 4 5 4 5 11 7 3 4 10 22 7 19 20 13 12 11 14
25 21 21 19 17 15 12 12 12 13 13 14 15 14 13 14 12 7 9 4 2 3 5 3 4 6 4 5 2 2 1 2 1 6 14 9 3 3 8 15 12 18 20 18 14 8 14
22 24 22 20 18 15 11 11 12 13 11 14 14 15 14 11 6 2 4 4 2 3 3 2 1 1 2 3 3 3 1 1 4 11 18 7 1 2 2 17 15 17 16 12 10 15 12
18 20 22 21 19 15 11 11 10 12 11 14 14 15 13 6 4 3 2 3 2 4 2 2 0 4 3 4 4 4 3 6 4 8 4 4 9 7 9 20 15 15 11 15 15 20 3
18 24 26 23 19 16 12 10 9 11 10 12 14 13 3 5 7 1 3 3 4 3 2 2 2 2 3 2 4 4 1 4 9 7 14 6 5 1 9 10 4 16 17 11 8 9 9
20 27 27 24 21 17 13 9 7 9 8 10 10 2 5 3 2 4 4 4 3 2 2 2 1 2 5 4 4 5 7 8 3 6 6 6 8 9 12 13 13 19 23 9 8 7 9
21 26 27 25 22 18 14 9 6 6 5 6 2 4 2 2 0 3 4 4 1 1 1 3 5 3 3 3 3 4 6 3 1 6 2 3 6 8 6 10 10 19 18 6 8 10 13
24 28 28 26 23 19 14 11 7 4 3 1 6 4 2 2 3 2 5 5 2 1 3 1 4 3 3 1 2 1 2 5 5 3 0 2 4 2 3 4 7 13 10 3 2 3 1
26 30 30 29 24 20 16 12 7 4 3 8 5 4 2 2 2 4 4 0 1 0 2 3 4 4 4 5 5 5 5 1 5 2 2 5 6 4 5 5 2 4 9 4 1 4 5
28 32 32 28 25 21 17 13 8 5 5 12 6 3 4 2 4 4 2 1 1 2 1 3 3 2 2 3 5 3 3 2 3 4 1 7 5 3 10 8 12 6 6 4 2 2 4
30 34 33 28 25 22 18 14 10 7 11 10 4 3 4 1 2 3 1 3 1 1 2 0 1 5 3 1 4 2 3 3 5 4 7 2 5 7 4 2 6 12 14 17 9 5 4
31 34 34 31 27 24 19 16 13 13 21 9 4 3 2 3 3 5 2 2 1 0 2 1 1 2 2 2 3 4 5 2 4 3 4 4 6 7 5 3 4 8 12 9 13 3 6
37 35 33 31 28 24 20 17 14 14 20 4 6 4 3 4 5 4 5 4 4 2 2 2 1 2 2 3 1 8 7 4 4 3 2 3 5 3 5 1 7 13 17 17 16 9 15
38 36 34 31 27 24 21 17 14 13 20 7 5 4 5 6 9 8 4 4 6 3 0 2 3 1 1 4 5 5 6 9 6 2 3 3 3 2 4 5 3 4 13 18 19 23 19
38 37 35 31 28 24 20 16 14 16 19 5 6 5 4 6 5 9 7 7 7 3 3 3 3 4 1 6 5 3 7 4 4 6 2 1 3 2 1 2 2 5 7 9 17 20 21
37 37 36 34 28 25 21 17 15 22 19 5 3 1 6 7 9 11 9 7 6 2 4 5 3 6 9 7 5 4 3 3 2 3 7 2 5 3 2 1 3 8 10 12 10 9 9
36 37 34 32 29 25 20 17 15 24 14 3 5 7 7 8 12 10 7 5 6 3 3 3 3 0 3 2 2 1 4 5 4 3 1 5 5 1 0 2 4 4 1 1 3 5 5
40 39 37 32 29 25 20 15 13 21 15 4 5 4 4 9 9 6 10 6 8 3 3 3 6 3 2 2 4 6 5 5 4 3 2 2 3 1 3 5 3 3 3 2 1 7 9
36 39 37 34 28 25 22 17 15 18 15 7 5 2 2 12 6 8 10 8 6 6 5 2 2 4 2 3 2 5 5 3 4 3 2 2 2 4 2 3 3 8 3 1 3 9 8
38 39 38 33 29 26 24 21 18 16 13 8 5 2 3 7 5 3 5 7 1 1 4 3 2 1 3 6 7 5 5 1 5 6 6 7 6 9 9 5 3 5 3 2 6 2 7
37 38 36 33 29 27 24 21 17 16 15 4 7 3 2 6 8 5 3 3 2 2 5 4 4 3 2 5 2 2 3 2 3 4 1 5 4 4 4 4 7 6 3 3 3 3 9
38 38 36 32 29 27 24 22 21 15 15 7 6 5 12 10 8 11 10 8 7 6 2 1 2 4 3 2 2 1 1 1 2 3 1 3 4 3 3 1 5 4 4 4 4 10 13
Wind_Direction
282 278 282 286 293 302 308 319 314 316 322 323 325 328 327 326 326 322 323 304 304 302 310 317 330 334 313 267 268 86 334 321 292 170 160 241 252 207 209 201 191 211 219 222 157 170 189
262 264 268 273 284 288 295 305 310 312 313 320 322 320 320 321 315 319 315 312 294 296 293 303 320 314 287 277 53 335 322 296 270 197 181 217 239 213 219 207 196 207 208 250 158 171 184
265 268 264 272 278 282 290 297 304 309 316 318 317 324 319 323 315 314 312 307 304 290 290 286 295 284 277 259 307 329 307 271 254 202 201 221 263 276 224 204 198 202 195 252 195 187 202
257 259 254 259 271 279 284 290 296 310 320 318 317 324 317 320 323 310 319 300 295 287 282 279 273 280 272 321 299 291 282 245 246 238 220 280 346 323 265 186 186 211 188 198 207 191 154
251 254 250 240 257 264 277 289 295 308 314 315 314 317 314 316 320 310 320 304 295 295 269 259 241 254 281 123 254 305 261 240 189 179 146 342 45 291 206 185 184 197 209 186 186 205 196
260 254 242 238 245 259 270 282 294 309 311 317 318 320 319 318 319 319 320 301 299 242 221 237 255 267 236 309 317 295 271 220 171 168 162 233 138 257 177 175 185 193 211 192 180 189 201
273 255 235 227 242 256 265 280 293 306 311 316 313 314 316 320 321 322 314 259 215 193 224 278 309 282 322 332 285 259 296 186 201 186 159 133 188 187 174 181 189 190 198 206 189 183 188
279 276 216 218 229 247 259 273 291 300 310 316 311 312 314 320 316 313 282 249 347 350 268 239 273 274 273 65 306 350 309 158 199 166 171 127 213 216 193 179 208 184 178 199 148 166 187
284 270 209 211 225 238 252 269 286 297 308 311 312 314 316 316 315 278 240 262 289 299 262 152 285 289 296 226 65 77 26 172 129 172 164 114 346 287 183 155 172 181 173 167 176 160 206
272 261 207 208 220 230 243 264 284 295 311 309 310 311 306 316 286 200 213 196 229 302 268 126 167 344 287 264 87 337 205 70 203 166 124 128 46 95 319 166 164 164 190 173 173 173 207
269 236 202 206 217 221 232 254 280 297 309 308 312 307 299 243 320 224 67 170 254 238 291 25 274 335 310 16 93 359 233 207 108 106 193 114 154 200 227 173 178 146 160 169 176 206 248
260 225 201 204 211 212 222 244 275 292 309 317 321 309 249 166 228 30 147 202 241 239 45 57 44 4 127 51 153 169 315 193 86 54 44 71 112 171 193 107 106 144 146 138 191 224 242
258 213 194 199 204 206 214 228 256 284 315 325 334 36 211 179 77 131 173 226 238 344 131 135 124 4 358 122 100 98 140 129 42 78 9 93 133 232 197 117 135 154 151 146 178 200 234
246 203 195 196 201 200 203 211 231 279 316 331 271 231 120 312 70 160 229 247 271 127 146 84 141 155 165 112 42 82 123 112 63 167 152 121 148 131 161 153 166 175 174 166 191 201 202
234 201 193 193 194 199 199 198 214 255 289 126 196 188 179 100 131 240 263 255 96 140 14 236 197 164 140 237 136 91 245 132 175 195 316 80 75 97 207 190 210 185 225 24 336 24 155
218 194 194 189 190 192 195 192 199 211 236 177 199 199 143 190 254 264 255 246 94 338 324 321 24 19 72 112 154 157 197 83 154 209 302 130 113 252 148 187 176 232 160 176 304 178 212
206 194 192 185 187 187 188 189 184 191 198 184 215 221 106 210 248 249 284 89 204 156 260 347 79 77 68 163 161 147 77 99 146 152 332 147 144 208 167 201 187 178 190 226 259 327 304
201 191 186 183 181 185 184 184 176 172 159 172 191 220 121 242 262 251 243 186 250 106 132 287 82 87 146 94 81 80 126 41 154 170 139 67 113 147 175 282 310 242 226 213 219 195 238
191 184 180 182 177 182 183 182 174 172 180 155 180 145 140 251 217 205 159 203 259 273 69 128 106 57 40 107 109 112 96 136 147 148 144 187 154 131 138 228 228 227 218 232 236 2 215
176 179 178 177 176 178 182 180 178 185 196 224 163 148 157 220 241 262 194 176 144 63 78 57 67 152 133 80 77 136 118 155 208 250 283 248 182 259 229 84 168 203 220 215 231 225 235
174 177 176 170 178 175 180 178 179 189 185 208 202 172 168 188 209 214 228 176 170 159 160 37 127 71 115 128 108 113 105 132 189 165 210 269 156 80 50 61 86 214 222 220 220 235 244
175 173 172 169 174 174 179 178 173 176 165 215 179 169 200 151 156 192 192 190 181 137 318 102 109 69 140 99 38 114 136 175 166 187 165 91 133 119 305 355 275 269 245 234 237 244 247
176 168 169 165 172 174 176 176 173 172 182 174 177 206 229 156 179 198 189 164 158 200 63 58 88 112 87 48 35 52 18 26 54 210 183 184 141 175 172 268 309 275 253 233 235 258 272
170 162 166 165 168 173 174 172 176 185 194 140 176 169 194 170 189 198 143 158 150 90 116 42 49 17 38 305 174 175 115 112 98 62 13 161 159 128 194 233 241 88 80 359 252 289 288
165 160 164 165 171 166 166 164 170 184 184 184 157 195 175 149 164 159 157 140 123 86 119 93 60 29 336 210 174 153 160 175 125 89 119 290 181 151 246 234 326 124 89 54 264 86 41
169 161 162 163 170 161 158 141 150 161 168 155 128 300 145 140 167 135 148 169 155 156 180 140 50 335 275 221 230 217 202 162 184 158 92 138 247 231 178 258 246 91 102 352 307 201 28
173 164 160 162 164 160 156 148 144 146 157 133 110 317 114 109 105 137 151 168 116 195 162 131 55 255 339 201 211 221 219 315 194 192 184 190 210 218 224 246 252 36 352 208 227 81 353
182 165 158 157 160 156 154 158 155 143 135 105 102 10 84 97 83 71 56 110 130 264 183 122 161 177 25 219 225 198 269 155 271 52 241 194 198 202 196 222 244 12 184 289 41 319 334
171 163 155 150 157 148 149 153 149 141 137 126 106 79 68 77 98 93 71 47 33 18 353 41 61 94 106 73 217 71 116 162 341 193 168 231 331 332 267 342 95 18 326 118 5 328 325